DW2150 Weather Reports


Display with metric or nautical units.
time (UTC)temp
F
wind
direction
speed
MPH
gust
MPH
rain 1hr
in
rain 24hr
in
rain mn
in
humidity
%
barometer
mb
20260904144137 82 54 2.0 5.0 0.00 0.16 0.00 92 1014.9
20260904143615 82 86 1.0 5.0 0.00 0.16 0.00 92 1014.9
20260904142938 82 66 2.0 5.0 0.00 0.16 0.00 93 1014.9
20260904142432 82 54 1.0 5.0 0.00 0.16 0.00 94 1014.6
20260904141859 81 17 0.0 1.0 0.00 0.16 0.00 94 1014.6
20260904141216 81 17 0.0 1.0 0.00 0.16 0.00 94 1014.6
20260904140712 81 17 0.0 1.0 0.00 0.16 0.00 94 1014.6
20260904140209 80 17 1.0 1.0 0.00 0.16 0.00 94 1014.6
20260904135647 80 17 0.0 0.0 0.00 0.16 0.00 94 1014.6
20260904135144 80 17 0.0 0.0 0.00 0.16 0.00 94 1014.6
20260904134642 80 17 0.0 0.0 0.00 0.16 0.00 94 1014.6
20260904134138 80 17 0.0 0.0 0.00 0.16 0.00 94 1014.2
20260904133532 80 17 0.0 0.0 0.00 0.16 0.00 94 1014.2
20260904133029 79 17 0.0 0.0 0.00 0.16 0.00 94 1014.6
20260904132526 79 17 0.0 0.0 0.00 0.16 0.00 94 1014.2
20260904132024 79 17 0.0 0.0 0.00 0.16 0.00 94 1014.2
20260904131501 80 17 0.0 0.0 0.00 0.16 0.00 94 1014.2
20260904130959 80 17 0.0 0.0 0.00 0.16 0.00 94 1014.2
20260904130456 80 17 0.0 0.0 0.00 0.16 0.00 95 1014.2
20260904125916 80 17 0.0 0.0 0.00 0.16 0.00 95 1014.2
20260904125413 80 12 0.0 0.0 0.00 0.16 0.00 95 1014.2
20260904124910 80 12 0.0 0.0 0.00 0.16 0.00 95 1014.2
20260904124407 80 12 0.0 0.0 0.00 0.16 0.00 95 1013.9
20260904123903 80 12 0.0 0.0 0.00 0.16 0.00 95 1013.9
20260904123400 80 12 0.0 0.0 0.00 0.16 0.00 95 1013.9
20260904122752 80 12 0.0 0.0 0.00 0.16 0.00 95 1013.5
20260904122249 80 12 0.0 0.0 0.00 0.16 0.00 95 1013.5
20260904121745 80 12 0.0 0.0 0.00 0.16 0.00 95 1013.5
20260904121208 80 12 0.0 0.0 0.00 0.16 0.00 95 1013.5
20260904120705 80 12 0.0 0.0 0.00 0.16 0.00 95 1013.5
20260904120140 80 12 0.0 0.0 0.00 0.16 0.00 94 1013.5
20260904115615 80 12 0.0 0.0 0.00 0.16 0.00 95 1013.2
20260904115111 80 12 0.0 0.0 0.00 0.16 0.00 95 1013.5
20260904114537 80 12 0.0 0.0 0.00 0.16 0.00 95 1013.5
20260904114034 80 12 0.0 0.0 0.00 0.16 0.00 95 1013.5
20260904113531 80 12 0.0 0.0 0.00 0.16 0.00 94 1013.2
20260904113028 80 12 0.0 0.0 0.00 0.16 0.00 95 1013.5
20260904112524 80 12 0.0 0.0 0.00 0.16 0.00 94 1013.5
20260904112022 80 12 0.0 0.0 0.00 0.16 0.00 94 1013.2
20260904111519 80 12 0.0 0.0 0.00 0.16 0.00 95 1013.5
20260904110944 80 12 0.0 0.0 0.00 0.16 0.00 94 1013.5
20260904110441 80 12 0.0 0.0 0.00 0.16 0.00 94 1013.5
20260904105900 80 12 0.0 0.0 0.00 0.16 0.00 94 1013.5
20260904105358 80 12 0.0 0.0 0.00 0.16 0.00 94 1013.5
20260904104855 80 12 0.0 0.0 0.00 0.16 0.00 94 1013.5
20260904104351 80 12 0.0 0.0 0.00 0.16 0.00 94 1013.5
20260904103817 80 12 0.0 0.0 0.00 0.16 0.00 94 1013.5
20260904103313 80 12 0.0 0.0 0.00 0.16 0.00 94 1013.2
20260904102810 80 12 0.0 0.0 0.00 0.16 0.00 94 1013.2
20260904102307 80 12 0.0 0.0 0.00 0.16 0.00 94 1013.2
20260904101732 80 12 0.0 0.0 0.00 0.16 0.00 94 1013.2
20260904101229 80 12 0.0 0.0 0.00 0.16 0.00 94 1013.2
20260904100726 80 12 0.0 0.0 0.00 0.16 0.00 94 1013.2
20260904100121 80 12 0.0 0.0 0.00 0.16 0.00 94 1012.9
20260904095616 80 12 0.0 0.0 0.00 0.16 0.00 94 1012.9
20260904095037 80 12 0.0 0.0 0.00 0.16 0.00 94 1012.9
20260904094534 80 12 0.0 0.0 0.00 0.16 0.00 94 1012.9
20260904094000 80 13 0.0 0.0 0.00 0.16 0.00 94 1012.9
20260904093426 80 13 0.0 0.0 0.00 0.16 0.00 94 1012.9
20260904092904 80 12 0.0 0.0 0.00 0.16 0.00 94 1012.9
20260904092401 80 12 0.0 0.0 0.00 0.16 0.00 94 1012.9
20260904091857 80 12 0.0 0.0 0.00 0.16 0.00 94 1012.9
20260904091323 80 12 0.0 0.0 0.00 0.16 0.00 94 1012.9
20260904090658 80 12 0.0 0.0 0.00 0.16 0.00 94 1012.9
20260904090155 80 12 0.0 0.0 0.00 0.16 0.00 94 1012.9
20260904085652 80 12 0.0 0.0 0.00 0.16 0.00 94 1012.9
20260904085149 80 12 0.0 0.0 0.00 0.16 0.00 94 1012.9
20260904084647 80 12 0.0 0.0 0.00 0.16 0.00 94 1012.5
20260904084143 80 12 0.0 0.0 0.00 0.16 0.00 94 1012.5
20260904083640 80 12 0.0 0.0 0.00 0.16 0.00 94 1012.9
20260904083106 80 12 0.0 0.0 0.00 0.16 0.00 94 1012.9
20260904082602 80 12 0.0 0.0 0.00 0.16 0.00 94 1012.9
20260904082041 80 12 0.0 0.0 0.00 0.16 0.00 94 1012.9
20260904081538 80 12 0.0 0.0 0.00 0.16 0.00 94 1012.9
20260904081035 80 13 0.0 0.0 0.00 0.16 0.00 94 1012.9
20260904080532 80 12 0.0 0.0 0.00 0.16 0.00 94 1012.9
20260904075936 80 13 0.0 0.0 0.00 0.16 0.00 94 1012.9
20260904075423 80 12 0.0 0.0 0.00 0.16 0.00 94 1012.9
20260904074906 80 12 0.0 0.0 0.00 0.16 0.00 94 1012.9
20260904074403 80 12 0.0 0.0 0.00 0.16 0.00 94 1012.9
20260904073859 80 12 0.0 0.0 0.00 0.16 0.00 94 1012.9
20260904073325 80 12 0.0 0.0 0.00 0.16 0.00 94 1012.9
20260904072804 80 12 0.0 0.0 0.00 0.16 0.00 94 1012.9
20260904072300 80 13 0.0 0.0 0.00 0.16 0.00 94 1012.9
20260904071757 80 12 0.0 0.0 0.00 0.16 0.00 94 1012.9
20260904071254 80 12 0.0 0.0 0.00 0.16 0.00 94 1012.9
20260904070719 80 12 0.0 0.0 0.00 0.16 0.00 94 1013.2
20260904070217 80 12 0.0 0.0 0.00 0.16 0.00 94 1013.2
20260904065655 80 12 0.0 0.0 0.00 0.16 0.00 94 1012.9
20260904065152 80 12 0.0 0.0 0.00 0.16 0.00 94 1013.2
20260904064649 80 12 0.0 0.0 0.00 0.16 0.00 94 1013.2
20260904064115 80 12 0.0 0.0 0.00 0.16 0.00 94 1013.2
20260904063612 80 12 0.0 0.0 0.00 0.16 0.00 94 1013.2
20260904063037 80 13 0.0 0.0 0.00 0.16 0.00 94 1012.9
20260904062533 80 12 0.0 0.0 0.00 0.16 0.00 94 1012.9
20260904062030 80 12 0.0 0.0 0.00 0.16 0.00 94 1013.2
20260904061456 80 13 0.0 0.0 0.00 0.16 0.00 94 1013.2
20260904060953 81 12 0.0 0.0 0.00 0.16 0.00 94 1013.2
20260904060449 81 12 0.0 0.0 0.00 0.16 0.00 94 1013.2
20260904055946 81 12 0.0 0.0 0.00 0.16 0.00 94 1013.2
20260904055442 81 13 0.0 0.0 0.00 0.16 0.00 94 1013.2
20260904054920 81 12 0.0 0.0 0.00 0.16 0.00 94 1013.2
20260904054417 81 12 0.0 0.0 0.00 0.16 0.00 94 1013.2
20260904053842 81 12 0.0 0.0 0.00 0.16 0.00 94 1013.2
20260904053339 81 12 0.0 0.0 0.00 0.16 0.00 94 1013.2
20260904052837 81 13 0.0 0.0 0.00 0.16 0.00 94 1013.2
20260904052334 81 12 0.0 0.0 0.00 0.16 0.00 94 1013.2
20260904051831 81 13 0.0 0.0 0.00 0.16 0.16 94 1013.2
20260904051328 81 13 0.0 0.0 0.00 0.16 0.16 94 1013.2
20260904050825 81 12 0.0 0.0 0.00 0.16 0.16 94 1013.2
20260904050322 81 12 0.0 0.0 0.00 0.16 0.16 94 1013.2
20260904045819 81 13 0.0 0.0 0.00 0.16 0.16 94 1013.2
20260904045245 81 12 0.0 0.0 0.00 0.16 0.16 94 1013.2
20260904044741 81 12 0.0 0.0 0.00 0.16 0.16 94 1013.2
20260904044238 81 12 0.0 0.0 0.00 0.16 0.16 94 1013.2
20260904043735 81 12 0.0 0.0 0.00 0.16 0.16 94 1013.2
20260904043231 81 13 0.0 0.0 0.00 0.16 0.16 94 1013.2
20260904042727 81 12 0.0 0.0 0.00 0.16 0.16 94 1013.2
20260904042224 81 12 0.0 0.0 0.00 0.16 0.16 94 1013.2
20260904041717 81 13 0.0 0.0 0.00 0.16 0.16 94 1013.2
20260904041210 81 12 0.0 0.0 0.00 0.16 0.16 94 1013.2
20260904040657 81 12 0.0 0.0 0.00 0.16 0.16 94 1013.2
20260904040143 81 12 0.0 0.0 0.00 0.16 0.16 94 1013.2
20260904035540 81 12 0.0 0.0 0.00 0.16 0.16 94 1013.2
20260904035037 81 12 0.0 0.0 0.00 0.16 0.16 94 1013.2
20260904034533 81 12 0.0 0.0 0.00 0.16 0.16 94 1013.2
20260904033928 81 12 0.0 0.0 0.00 0.16 0.16 94 1013.5
20260904033425 81 12 0.0 0.0 0.00 0.16 0.16 94 1013.5
20260904032922 81 12 0.0 0.0 0.00 0.16 0.16 94 1013.2
20260904032419 81 12 0.0 0.0 0.00 0.16 0.16 94 1013.2
20260904031917 81 12 0.0 0.0 0.00 0.16 0.16 94 1013.5
20260904031413 81 12 0.0 0.0 0.00 0.16 0.16 94 1013.5
20260904030910 81 12 0.0 0.0 0.00 0.16 0.16 94 1013.5
20260904030407 81 12 0.0 0.0 0.00 0.16 0.16 93 1013.5
20260904025904 81 12 0.0 0.0 0.00 0.16 0.16 93 1013.5
20260904025401 81 13 0.0 0.0 0.00 0.16 0.16 93 1013.5
20260904024858 81 12 0.0 0.0 0.00 0.16 0.16 93 1013.5
20260904024355 81 12 0.0 0.0 0.00 0.16 0.16 93 1013.5
20260904023821 81 12 0.0 0.0 0.00 0.16 0.16 93 1013.2
20260904023318 81 12 0.0 0.0 0.00 0.16 0.16 93 1013.2
20260904022815 81 12 0.0 0.0 0.00 0.16 0.16 93 1013.2
20260904022312 81 12 0.0 0.0 0.00 0.16 0.16 93 1013.2
20260904021809 81 12 0.0 0.0 0.00 0.16 0.16 93 1012.9
20260904021235 81 13 0.0 0.0 0.00 0.16 0.16 93 1012.9
20260904020718 81 5 0.0 0.0 0.00 0.16 0.16 93 1012.9
20260904020215 81 5 0.0 0.0 0.00 0.16 0.16 93 1012.9
20260904015654 81 5 0.0 0.0 0.00 0.16 0.16 93 1012.9
20260904015119 81 5 0.0 0.0 0.00 0.16 0.16 93 1012.9
20260904014616 81 5 0.0 0.0 0.00 0.16 0.16 93 1012.9
20260904014113 81 5 0.0 0.0 0.00 0.16 0.16 93 1012.5
20260904013610 81 5 0.0 0.0 0.00 0.16 0.16 93 1012.5
20260904013107 81 5 0.0 0.0 0.00 0.16 0.16 93 1012.5
20260904012604 81 5 0.0 0.0 0.00 0.16 0.16 93 1012.5
20260904012101 81 5 0.0 0.0 0.00 0.16 0.16 93 1012.5
20260904011558 81 5 0.0 0.0 0.00 0.16 0.16 93 1012.5
20260904011056 81 5 0.0 0.0 0.00 0.16 0.16 93 1012.5
20260904010534 81 5 0.0 1.0 0.00 0.16 0.16 93 1012.5
20260904010031 81 5 0.0 1.0 0.00 0.16 0.16 93 1012.5
20260904005528 81 5 0.0 2.0 0.00 0.16 0.16 93 1012.5
20260904004952 82 5 0.0 2.0 0.00 0.16 0.16 93 1012.5
20260904004449 82 5 0.0 2.0 0.00 0.16 0.16 93 1012.2
20260904003946 82 5 1.0 2.0 0.00 0.16 0.16 93 1012.5
20260904003444 82 5 0.0 2.0 0.00 0.16 0.16 93 1012.5
20260904002914 82 5 0.0 2.0 0.00 0.16 0.16 93 1012.5
20260904002411 82 5 0.0 2.0 0.00 0.16 0.16 93 1012.5
20260904001908 82 5 0.0 2.0 0.00 0.16 0.16 92 1012.5
20260904001405 82 5 0.0 2.0 0.00 0.16 0.16 93 1012.5
20260904000902 82 5 1.0 2.0 0.00 0.16 0.16 93 1012.5
20260904000359 82 5 0.0 2.0 0.00 0.16 0.16 93 1012.5
20260903235856 82 5 1.0 3.0 0.00 0.16 0.16 92 1012.5
20260903235351 82 25 0.0 3.0 0.00 0.16 0.16 92 1012.5
20260903234847 82 25 1.0 3.0 0.00 0.16 0.16 92 1012.5
20260903234344 83 323 1.0 3.0 0.00 0.16 0.16 93 1012.5
20260903233841 83 338 1.0 3.0 0.00 0.16 0.16 92 1012.5
20260903233307 83 338 1.0 3.0 0.00 0.16 0.16 92 1012.5
20260903232803 82 267 1.0 3.0 0.00 0.16 0.16 92 1012.5
20260903232228 82 97 1.0 3.0 0.00 0.16 0.16 92 1012.5
20260903231725 83 8 1.0 2.0 0.00 0.16 0.16 92 1012.2
20260903231151 83 360 0.0 0.0 0.00 0.16 0.16 93 1012.5
20260903230648 83 42 0.0 0.0 0.00 0.16 0.16 93 1012.5
20260903230124 83 300 0.0 0.0 0.00 0.16 0.16 92 1012.5
20260903225547 83 300 0.0 0.0 0.00 0.16 0.16 92 1012.5
20260903225044 83 355 0.0 0.0 0.00 0.16 0.16 92 1012.5
20260903224541 83 355 0.0 0.0 0.00 0.16 0.16 92 1012.5
20260903224038 83 109 0.0 0.0 0.00 0.16 0.16 92 1012.5
20260903223535 83 109 0.0 2.0 0.00 0.16 0.16 92 1012.9
20260903223032 83 355 0.0 3.0 0.00 0.16 0.16 92 1012.9
20260903222441 84 360 0.0 4.0 0.00 0.16 0.16 92 1012.9
20260903221938 84 112 2.0 5.0 0.00 0.16 0.16 92 1012.9
20260903221435 84 62 1.0 5.0 0.00 0.16 0.16 92 1012.9
20260903220933 83 77 2.0 5.0 0.00 0.16 0.16 92 1012.9
20260903220411 83 75 2.0 5.0 0.00 0.16 0.16 92 1012.9
20260903215908 83 61 1.0 4.0 0.00 0.16 0.16 92 1012.9
20260903215404 83 70 2.0 4.0 0.00 0.16 0.16 92 1012.9
20260903214901 83 79 2.0 4.0 0.00 0.16 0.16 92 1013.2
20260903214326 83 88 1.0 2.0 0.00 0.16 0.16 93 1013.2
20260903213823 83 88 1.0 2.0 0.00 0.16 0.16 93 1013.5
20260903213249 83 50 1.0 3.0 0.00 0.16 0.16 92 1013.5
20260903212209 83 92 0.0 3.0 0.00 0.16 0.16 92 1013.5
20260903211706 83 66 1.0 3.0 0.00 0.16 0.16 92 1013.5
20260903211159 83 74 2.0 3.0 0.01 0.16 0.16 92 1013.5
20260903210656 83 56 1.0 3.0 0.02 0.16 0.16 92 1013.5
20260903210146 83 31 1.0 3.0 0.04 0.16 0.16 92 1013.5
20260903205631 83 29 1.0 4.0 0.08 0.16 0.16 93 1013.5
20260903205026 83 27 1.0 4.0 0.11 0.16 0.16 93 1013.5
20260903204523 83 356 1.0 4.0 0.13 0.16 0.16 93 1013.5
20260903203948 83 74 1.0 4.0 0.14 0.16 0.16 92 1013.5
20260903203445 83 70 0.0 2.0 0.16 0.16 0.16 92 1013.5
20260903202942 83 70 0.0 2.0 0.16 0.16 0.16 93 1013.2
20260903202438 83 58 2.0 2.0 0.16 0.16 0.16 92 1013.2
20260903201935 83 325 0.0 0.0 0.16 0.16 0.16 92 1013.5
20260903201417 84 325 0.0 0.0 0.15 0.15 0.15 91 1013.5
20260903200843 84 325 0.0 0.0 0.15 0.15 0.15 91 1013.5
20260903200318 85 325 0.0 1.0 0.13 0.13 0.13 90 1013.2
20260903195816 85 325 0.0 1.0 0.09 0.09 0.09 90 1013.5
20260903195312 86 325 0.0 2.0 0.06 0.06 0.06 89 1013.5
20260903194809 87 325 0.0 2.0 0.03 0.03 0.03 87 1013.9
20260903194306 89 325 1.0 3.0 0.02 0.02 0.02 85 1013.9
20260903193802 90 325 1.0 5.0 0.01 0.01 0.01 83 1013.9
20260903193258 90 325 1.0 7.0 0.00 0.00 0.00 81 1013.9
20260903192755 91 65 2.0 8.0 0.00 0.00 0.00 79 1013.9
20260903192252 91 23 1.0 9.0 0.00 0.00 0.00 79 1013.9
20260903191733 92 44 2.0 10.0 0.00 0.00 0.00 77 1013.5
20260903191159 93 74 2.0 10.0 0.00 0.00 0.00 76 1013.2
20260903190656 93 50 2.0 10.0 0.00 0.00 0.00 75 1013.5
20260903190153 93 55 3.0 10.0 0.00 0.00 0.00 75 1013.5
20260903185631 93 22 2.0 9.0 0.00 0.00 0.00 75 1013.5
20260903185127 92 48 2.0 9.0 0.00 0.00 0.00 77 1013.5
20260903184625 92 58 3.0 8.0 0.00 0.00 0.00 76 1013.9
20260903184122 92 49 2.0 8.0 0.00 0.00 0.00 77 1013.9
20260903183618 92 32 2.0 8.0 0.00 0.00 0.00 78 1013.9
20260903183115 92 63 2.0 8.0 0.00 0.00 0.00 79 1013.9
20260903182612 91 71 3.0 8.0 0.00 0.00 0.00 79 1013.9
20260903182108 92 46 2.0 8.0 0.00 0.00 0.00 78 1013.9
20260903181547 92 31 3.0 7.0 0.00 0.00 0.00 79 1013.9
20260903181043 92 54 2.0 7.0 0.00 0.00 0.00 79 1013.9
20260903180540 92 26 2.0 7.0 0.00 0.00 0.00 78 1014.2
20260903180005 93 72 2.0 7.0 0.00 0.00 0.00 77 1014.6
20260903175502 93 81 1.0 6.0 0.00 0.00 0.00 78 1014.6
20260903174959 93 78 3.0 6.0 0.00 0.00 0.00 76 1014.6
20260903174456 93 74 1.0 3.0 0.00 0.00 0.00 73 1014.6
20260903173953 93 79 1.0 3.0 0.00 0.00 0.00 74 1014.6
20260903173451 93 91 0.0 3.0 0.00 0.00 0.00 74 1014.6
20260903172913 93 167 2.0 3.0 0.00 0.00 0.00 74 1014.6
20260903172314 94 330 1.0 3.0 0.00 0.00 0.00 74 1014.6
20260903171809 93 355 1.0 3.0 0.00 0.00 0.00 76 1014.9
20260903171247 92 15 1.0 3.0 0.00 0.00 0.00 77 1014.9
20260903170725 92 249 1.0 3.0 0.00 0.00 0.00 75 1014.9
20260903170221 91 243 1.0 3.0 0.00 0.00 0.00 78 1014.9
20260903165718 91 244 1.0 3.0 0.00 0.00 0.00 78 1014.9
20260903165215 90 239 1.0 3.0 0.00 0.00 0.00 80 1015.2
20260903164712 90 265 2.0 3.0 0.00 0.00 0.00 79 1014.9
20260903164138 90 20 1.0 6.0 0.00 0.00 0.00 81 1014.9
20260903163635 89 274 1.0 6.0 0.00 0.00 0.00 83 1014.9
20260903163133 88 274 0.0 6.0 0.00 0.00 0.00 84 1014.9
20260903162630 87 260 3.0 6.0 0.00 0.00 0.00 86 1014.9
20260903162056 86 260 1.0 2.0 0.00 0.00 0.00 87 1014.6
20260903161553 85 249 0.0 2.0 0.00 0.00 0.00 89 1014.6
20260903161019 84 65 0.0 2.0 0.00 0.00 0.00 89 1014.6
20260903160426 84 65 0.0 2.0 0.00 0.00 0.00 89 1014.6
20260903155852 83 65 1.0 1.0 0.00 0.00 0.00 90 1014.6
20260903155348 83 65 0.0 1.0 0.00 0.00 0.00 90 1014.9
20260903154844 83 65 0.0 1.0 0.00 0.00 0.00 90 1014.9
20260903154341 83 65 1.0 2.0 0.00 0.00 0.00 90 1014.9
20260903153800 82 65 0.0 2.0 0.00 0.00 0.00 91 1014.9
20260903153234 82 65 0.0 2.0 0.00 0.00 0.00 90 1014.9
20260903152729 82 59 1.0 1.0 0.00 0.00 0.00 90 1014.9
20260903152210 82 55 1.0 1.0 0.00 0.00 0.00 91 1014.9
20260903151706 82 53 0.0 1.0 0.00 0.00 0.00 91 1014.9
20260903151203 82 73 0.0 0.0 0.00 0.00 0.00 90 1014.9
20260903150628 81 80 0.0 0.0 0.00 0.00 0.00 90 1014.9
20260903150125 81 80 0.0 0.0 0.00 0.00 0.00 91 1014.6
20260903145557 81 80 0.0 0.0 0.00 0.00 0.00 90 1014.6
20260903145053 80 80 0.0 0.0 0.00 0.00 0.00 90 1014.6
20260903144550 80 80 0.0 0.0 0.00 0.00 0.00 90 1014.6